| time (UTC) | temp F | wind direction | speed knots | gust knots | rain 1hr in | rain 24hr in | rain mn in | humidity % | barometer mb |
| 20260510033954 | 51 | 246 | 0.0 | 0.9 | 0.00 | 0.14 | 0.14 | 95 | 1011.9 |
| 20260510033450 | 51 | 257 | 0.0 | 1.7 | 0.00 | 0.14 | 0.14 | 95 | 1011.8 |
| 20260510032948 | 51 | 98 | 0.0 | 0.9 | 0.00 | 0.14 | 0.14 | 95 | 1011.8 |
| 20260510032445 | 51 | 74 | 0.0 | 0.0 | 0.00 | 0.14 | 0.14 | 95 | 1011.6 |
| 20260510031944 | 51 | 74 | 0.0 | 0.0 | 0.00 | 0.14 | 0.14 | 95 | 1011.4 |
| 20260510031440 | 51 | 74 | 0.0 | 0.0 | 0.00 | 0.14 | 0.14 | 94 | 1011.6 |
| 20260510030936 | 51 | 74 | 0.0 | 0.9 | 0.00 | 0.14 | 0.14 | 94 | 1011.5 |
| 20260510030432 | 51 | 74 | 0.0 | 0.9 | 0.00 | 0.14 | 0.14 | 94 | 1011.6 |
| 20260510025930 | 51 | 82 | 0.0 | 0.9 | 0.00 | 0.14 | 0.14 | 94 | 1011.6 |
| 20260510025427 | 51 | 90 | 0.0 | 0.0 | 0.00 | 0.14 | 0.14 | 95 | 1011.4 |
| 20260510024924 | 51 | 81 | 0.0 | 0.0 | 0.00 | 0.14 | 0.14 | 94 | 1011.5 |
| 20260510024420 | 51 | 81 | 0.0 | 0.0 | 0.00 | 0.14 | 0.14 | 94 | 1011.3 |
| 20260510023916 | 51 | 240 | 0.0 | 0.9 | 0.00 | 0.14 | 0.14 | 94 | 1011.6 |
| 20260510023413 | 51 | 206 | 0.9 | 0.9 | 0.00 | 0.14 | 0.14 | 94 | 1011.2 |
| 20260510022910 | 51 | 216 | 0.0 | 1.7 | 0.00 | 0.14 | 0.14 | 94 | 1011.5 |
| 20260510022409 | 51 | 278 | 0.0 | 0.0 | 0.00 | 0.14 | 0.14 | 94 | 1011.4 |
| 20260510021908 | 51 | 278 | 0.0 | 0.0 | 0.00 | 0.14 | 0.14 | 93 | 1011.2 |
| 20260510021407 | 52 | 291 | 0.0 | 0.0 | 0.00 | 0.14 | 0.14 | 93 | 1011.3 |
| 20260510020903 | 52 | 246 | 0.0 | 0.9 | 0.00 | 0.14 | 0.14 | 93 | 1011.2 |
| 20260510020358 | 52 | 209 | 0.0 | 0.0 | 0.00 | 0.14 | 0.14 | 93 | 1011.2 |
| 20260510015854 | 52 | 209 | 0.0 | 0.0 | 0.00 | 0.14 | 0.14 | 92 | 1011.1 |
| 20260510015350 | 52 | 234 | 0.0 | 0.0 | 0.00 | 0.14 | 0.14 | 92 | 1010.9 |
| 20260510014845 | 52 | 221 | 0.0 | 1.7 | 0.00 | 0.14 | 0.14 | 92 | 1010.9 |
| 20260510014342 | 53 | 74 | 0.0 | 0.9 | 0.00 | 0.14 | 0.14 | 91 | 1010.8 |
| 20260510013838 | 53 | 279 | 0.0 | 0.0 | 0.00 | 0.14 | 0.14 | 91 | 1011.0 |
| 20260510013334 | 53 | 279 | 0.0 | 0.0 | 0.00 | 0.14 | 0.14 | 91 | 1010.5 |
| 20260510012829 | 53 | 254 | 0.0 | 0.0 | 0.00 | 0.14 | 0.14 | 90 | 1010.4 |
| 20260510012329 | 54 | 254 | 0.0 | 0.0 | 0.00 | 0.14 | 0.14 | 90 | 1010.6 |
| 20260510011824 | 54 | 261 | 0.0 | 1.7 | 0.00 | 0.14 | 0.14 | 89 | 1010.6 |
| 20260510011320 | 54 | 261 | 0.0 | 0.0 | 0.00 | 0.14 | 0.14 | 89 | 1010.6 |
| 20260510010817 | 55 | 270 | 0.0 | 0.0 | 0.00 | 0.14 | 0.14 | 88 | 1010.3 |
| 20260510010314 | 55 | 165 | 0.0 | 0.0 | 0.00 | 0.14 | 0.14 | 87 | 1010.2 |
| 20260510005811 | 56 | 270 | 0.0 | 0.0 | 0.00 | 0.14 | 0.14 | 86 | 1010.2 |
| 20260510005307 | 56 | 90 | 0.0 | 1.7 | 0.00 | 0.14 | 0.14 | 85 | 1010.3 |
| 20260510004805 | 56 | 277 | 0.0 | 1.7 | 0.00 | 0.14 | 0.14 | 87 | 1010.2 |
| 20260510004302 | 57 | 209 | 0.0 | 0.9 | 0.00 | 0.14 | 0.14 | 85 | 1010.3 |
| 20260510003759 | 57 | 270 | 0.0 | 0.9 | 0.00 | 0.14 | 0.14 | 84 | 1010.1 |
| 20260510003256 | 58 | 225 | 1.7 | 1.7 | 0.00 | 0.14 | 0.14 | 82 | 1009.9 |
| 20260510002754 | 58 | 270 | 0.0 | 0.9 | 0.00 | 0.14 | 0.14 | 80 | 1009.8 |
| 20260510002253 | 59 | 261 | 0.0 | 1.7 | 0.00 | 0.14 | 0.14 | 78 | 1009.9 |
| 20260510001749 | 60 | 200 | 0.0 | 0.9 | 0.00 | 0.14 | 0.14 | 76 | 1009.7 |
| 20260510001247 | 60 | 270 | 0.0 | 0.0 | 0.00 | 0.14 | 0.14 | 74 | 1009.7 |
| 20260510000743 | 61 | 180 | 0.0 | 0.0 | 0.00 | 0.14 | 0.14 | 72 | 1009.7 |
| 20260510000241 | 62 | 180 | 0.0 | 1.7 | 0.00 | 0.14 | 0.14 | 71 | 1009.6 |
| 20260509235737 | 62 | 107 | 0.0 | 1.7 | 0.00 | 0.14 | 0.14 | 70 | 1009.4 |
| 20260509235233 | 63 | 225 | 1.7 | 1.7 | 0.00 | 0.14 | 0.14 | 68 | 1009.6 |
| 20260509234729 | 63 | 285 | 0.0 | 1.7 | 0.00 | 0.14 | 0.14 | 68 | 1009.4 |
| 20260509234227 | 64 | 278 | 0.0 | 0.9 | 0.00 | 0.14 | 0.14 | 66 | 1009.4 |
| 20260509233725 | 65 | 270 | 0.0 | 2.6 | 0.00 | 0.14 | 0.14 | 64 | 1009.4 |
| 20260509233222 | 65 | 79 | 1.7 | 2.6 | 0.00 | 0.14 | 0.14 | 63 | 1009.5 |
| 20260509232718 | 66 | 18 | 0.0 | 2.6 | 0.00 | 0.14 | 0.14 | 61 | 1009.4 |
| 20260509232215 | 66 | 134 | 3.5 | 4.3 | 0.00 | 0.14 | 0.14 | 60 | 1009.3 |
| 20260509231711 | 68 | 185 | 0.9 | 5.2 | 0.00 | 0.14 | 0.14 | 57 | 1009.4 |
| 20260509231209 | 68 | 246 | 1.7 | 2.6 | 0.00 | 0.14 | 0.14 | 58 | 1009.3 |
| 20260509230707 | 68 | 213 | 1.7 | 3.5 | 0.00 | 0.14 | 0.14 | 57 | 1009.5 |
| 20260509230203 | 68 | 202 | 1.7 | 4.3 | 0.00 | 0.14 | 0.14 | 57 | 1009.3 |
| 20260509225658 | 68 | 294 | 0.9 | 4.3 | 0.00 | 0.14 | 0.14 | 58 | 1009.5 |
| 20260509225154 | 68 | 281 | 4.3 | 5.2 | 0.00 | 0.14 | 0.14 | 58 | 1009.6 |
| 20260509224645 | 68 | 280 | 0.0 | 5.2 | 0.00 | 0.14 | 0.14 | 59 | 1009.7 |
| 20260509224142 | 68 | 195 | 0.9 | 4.3 | 0.00 | 0.14 | 0.14 | 56 | 1009.6 |
| 20260509223638 | 69 | 111 | 0.0 | 2.6 | 0.00 | 0.14 | 0.14 | 58 | 1009.6 |
| 20260509223130 | 69 | 274 | 1.7 | 5.2 | 0.00 | 0.14 | 0.14 | 57 | 1009.7 |
| 20260509222627 | 68 | 285 | 0.9 | 7.0 | 0.00 | 0.14 | 0.14 | 57 | 1009.7 |
| 20260509222122 | 69 | 261 | 3.5 | 6.1 | 0.00 | 0.14 | 0.14 | 56 | 1009.6 |
| 20260509221619 | 69 | 165 | 0.9 | 2.6 | 0.00 | 0.14 | 0.14 | 54 | 1009.7 |
| 20260509221114 | 69 | 253 | 2.6 | 7.8 | 0.00 | 0.14 | 0.14 | 57 | 1009.7 |
| 20260509220610 | 69 | 276 | 4.3 | 6.1 | 0.00 | 0.14 | 0.14 | 57 | 1009.8 |
| 20260509220107 | 70 | 198 | 1.7 | 5.2 | 0.00 | 0.14 | 0.14 | 54 | 1009.9 |
| 20260509215602 | 70 | 270 | 3.5 | 5.2 | 0.00 | 0.14 | 0.14 | 55 | 1009.8 |
| 20260509215100 | 69 | 272 | 4.3 | 4.3 | 0.00 | 0.14 | 0.14 | 55 | 1009.8 |
| 20260509214557 | 70 | 249 | 0.0 | 5.2 | 0.00 | 0.14 | 0.14 | 55 | 1009.7 |
| 20260509214053 | 69 | 306 | 0.9 | 4.3 | 0.00 | 0.14 | 0.14 | 56 | 1009.6 |
| 20260509213549 | 68 | 257 | 2.6 | 5.2 | 0.00 | 0.14 | 0.14 | 61 | 1009.7 |
| 20260509213046 | 71 | 133 | 8.7 | 8.7 | 0.00 | 0.14 | 0.14 | 56 | 1009.6 |
| 20260509212544 | 70 | 180 | 0.0 | 7.0 | 0.00 | 0.14 | 0.14 | 57 | 1009.7 |
| 20260509212041 | 70 | 126 | 0.9 | 7.0 | 0.00 | 0.14 | 0.14 | 57 | 1009.7 |
| 20260509211536 | 68 | 250 | 3.5 | 6.1 | 0.00 | 0.14 | 0.14 | 59 | 1009.6 |
| 20260509211033 | 70 | 318 | 0.0 | 6.1 | 0.00 | 0.14 | 0.14 | 56 | 1009.8 |
| 20260509210530 | 69 | 259 | 1.7 | 6.1 | 0.00 | 0.14 | 0.14 | 58 | 1009.7 |
| 20260509210026 | 70 | 267 | 3.5 | 7.8 | 0.00 | 0.14 | 0.14 | 58 | 1009.5 |
| 20260509205526 | 70 | 114 | 0.9 | 7.0 | 0.00 | 0.14 | 0.14 | 57 | 1009.7 |
| 20260509205021 | 71 | 265 | 1.7 | 5.2 | 0.00 | 0.14 | 0.14 | 57 | 1009.8 |
| 20260509204518 | 69 | 154 | 2.6 | 9.6 | 0.00 | 0.14 | 0.14 | 55 | 1009.7 |
| 20260509204014 | 69 | 248 | 2.6 | 5.2 | 0.00 | 0.14 | 0.14 | 60 | 1009.8 |
| 20260509203510 | 70 | 280 | 2.6 | 4.3 | 0.00 | 0.14 | 0.14 | 59 | 1009.8 |
| 20260509203009 | 69 | 276 | 2.6 | 4.3 | 0.00 | 0.14 | 0.14 | 61 | 1009.8 |
| 20260509202509 | 70 | 232 | 4.3 | 5.2 | 0.00 | 0.14 | 0.14 | 58 | 1009.9 |
| 20260509202004 | 70 | 233 | 2.6 | 9.6 | 0.00 | 0.14 | 0.14 | 56 | 1009.9 |
| 20260509201459 | 71 | 195 | 0.9 | 7.8 | 0.00 | 0.14 | 0.14 | 55 | 1009.8 |
| 20260509200957 | 71 | 6 | 0.0 | 3.5 | 0.00 | 0.14 | 0.14 | 62 | 1010.0 |
| 20260509200452 | 70 | 225 | 0.0 | 4.3 | 0.00 | 0.14 | 0.14 | 61 | 1010.2 |
| 20260509195948 | 70 | 230 | 3.5 | 4.3 | 0.00 | 0.14 | 0.14 | 59 | 1010.1 |
| 20260509195444 | 67 | 220 | 1.7 | 6.1 | 0.00 | 0.14 | 0.14 | 63 | 1010.3 |
| 20260509194944 | 69 | 213 | 1.7 | 2.6 | 0.00 | 0.14 | 0.14 | 66 | 1010.0 |
| 20260509194439 | 70 | 289 | 0.9 | 8.7 | 0.00 | 0.14 | 0.14 | 60 | 1010.1 |
| 20260509193937 | 69 | 222 | 2.6 | 5.2 | 0.00 | 0.14 | 0.14 | 62 | 1010.2 |
| 20260509193436 | 68 | 220 | 1.7 | 4.3 | 0.00 | 0.14 | 0.14 | 65 | 1010.3 |
| 20260509192932 | 69 | 330 | 1.7 | 4.3 | 0.00 | 0.14 | 0.14 | 65 | 1010.4 |
| 20260509192429 | 67 | 260 | 3.5 | 6.1 | 0.00 | 0.14 | 0.14 | 65 | 1010.4 |
| 20260509191924 | 67 | 276 | 4.3 | 6.1 | 0.00 | 0.14 | 0.14 | 69 | 1010.2 |
| 20260509191420 | 67 | 248 | 2.6 | 5.2 | 0.00 | 0.14 | 0.14 | 70 | 1010.3 |
| 20260509190916 | 66 | 286 | 2.6 | 6.1 | 0.00 | 0.14 | 0.14 | 67 | 1010.5 |
| 20260509190414 | 66 | 243 | 1.7 | 2.6 | 0.00 | 0.14 | 0.14 | 71 | 1010.5 |
| 20260509185911 | 64 | 148 | 0.0 | 5.2 | 0.00 | 0.14 | 0.14 | 70 | 1010.4 |
| 20260509185408 | 65 | 279 | 2.6 | 3.5 | 0.00 | 0.14 | 0.14 | 71 | 1010.6 |
| 20260509184905 | 64 | 191 | 1.7 | 4.3 | 0.00 | 0.14 | 0.14 | 71 | 1010.5 |
| 20260509184401 | 64 | 235 | 3.5 | 4.3 | 0.00 | 0.14 | 0.14 | 73 | 1010.4 |
| 20260509183859 | 63 | 245 | 1.7 | 2.6 | 0.00 | 0.14 | 0.14 | 76 | 1010.6 |
| 20260509183353 | 63 | 180 | 0.0 | 2.6 | 0.00 | 0.14 | 0.14 | 76 | 1010.3 |
| 20260509182849 | 63 | 143 | 2.6 | 3.5 | 0.00 | 0.14 | 0.14 | 74 | 1010.5 |
| 20260509182347 | 62 | 169 | 1.7 | 2.6 | 0.00 | 0.14 | 0.14 | 77 | 1010.5 |
| 20260509181844 | 62 | 225 | 0.0 | 4.3 | 0.00 | 0.14 | 0.14 | 80 | 1010.6 |
| 20260509181341 | 61 | 180 | 1.7 | 3.5 | 0.00 | 0.14 | 0.14 | 80 | 1010.6 |
| 20260509180839 | 61 | 165 | 0.9 | 2.6 | 0.00 | 0.14 | 0.14 | 82 | 1010.5 |
| 20260509180334 | 61 | 82 | 0.0 | 2.6 | 0.00 | 0.14 | 0.14 | 82 | 1010.6 |
| 20260509175831 | 61 | 135 | 3.5 | 3.5 | 0.00 | 0.14 | 0.14 | 83 | 1010.5 |
| 20260509175327 | 60 | 185 | 0.0 | 3.5 | 0.00 | 0.14 | 0.14 | 84 | 1010.4 |
| 20260509174823 | 60 | 106 | 1.7 | 3.5 | 0.00 | 0.14 | 0.14 | 84 | 1010.5 |
| 20260509174319 | 60 | 105 | 0.9 | 2.6 | 0.00 | 0.14 | 0.14 | 85 | 1010.8 |
| 20260509173815 | 59 | 192 | 0.0 | 4.3 | 0.00 | 0.14 | 0.14 | 85 | 1010.7 |
| 20260509173311 | 59 | 201 | 0.0 | 2.6 | 0.00 | 0.14 | 0.14 | 86 | 1010.7 |
| 20260509172807 | 59 | 130 | 1.7 | 3.5 | 0.00 | 0.14 | 0.14 | 87 | 1010.8 |
| 20260509172306 | 59 | 131 | 1.7 | 2.6 | 0.00 | 0.14 | 0.14 | 88 | 1010.8 |
| 20260509171800 | 58 | 281 | 0.0 | 1.7 | 0.00 | 0.14 | 0.14 | 88 | 1010.8 |
| 20260509171256 | 58 | 83 | 2.6 | 2.6 | 0.00 | 0.14 | 0.14 | 89 | 1010.9 |
| 20260509170753 | 58 | 165 | 0.0 | 0.9 | 0.00 | 0.14 | 0.14 | 90 | 1010.9 |
| 20260509170249 | 58 | 119 | 2.6 | 2.6 | 0.00 | 0.14 | 0.14 | 89 | 1011.0 |
| 20260509165748 | 58 | 128 | 1.7 | 2.6 | 0.00 | 0.14 | 0.14 | 88 | 1011.0 |
| 20260509165243 | 58 | 99 | 0.0 | 2.6 | 0.00 | 0.14 | 0.14 | 89 | 1010.9 |
| 20260509164739 | 58 | 254 | 0.0 | 2.6 | 0.00 | 0.14 | 0.14 | 88 | 1011.0 |
| 20260509164235 | 59 | 270 | 0.0 | 1.7 | 0.00 | 0.14 | 0.14 | 88 | 1011.1 |
| 20260509163732 | 59 | 255 | 0.0 | 2.6 | 0.00 | 0.14 | 0.14 | 86 | 1010.9 |
| 20260509163229 | 59 | 90 | 0.0 | 0.9 | 0.00 | 0.14 | 0.14 | 87 | 1010.9 |
| 20260509162727 | 59 | 262 | 0.0 | 1.7 | 0.00 | 0.14 | 0.14 | 87 | 1010.8 |
| 20260509162221 | 59 | 203 | 0.0 | 1.7 | 0.00 | 0.14 | 0.14 | 86 | 1011.0 |
| 20260509161717 | 59 | 123 | 0.0 | 0.0 | 0.00 | 0.14 | 0.14 | 88 | 1010.7 |
| 20260509161214 | 58 | 79 | 2.6 | 3.5 | 0.00 | 0.14 | 0.14 | 90 | 1010.9 |
| 20260509160709 | 57 | 83 | 0.0 | 1.7 | 0.00 | 0.14 | 0.14 | 90 | 1011.0 |
| 20260509160205 | 57 | 115 | 0.0 | 1.7 | 0.00 | 0.14 | 0.14 | 93 | 1010.9 |
| 20260509155701 | 56 | 45 | 0.0 | 3.5 | 0.00 | 0.14 | 0.14 | 93 | 1011.3 |
| 20260509155157 | 56 | 67 | 2.6 | 2.6 | 0.00 | 0.14 | 0.14 | 93 | 1011.0 |
| 20260509154653 | 56 | 79 | 2.6 | 2.6 | 0.00 | 0.14 | 0.14 | 93 | 1011.0 |
| 20260509154151 | 56 | 56 | 2.6 | 3.5 | 0.00 | 0.14 | 0.14 | 92 | 1011.4 |
| 20260509153647 | 56 | 131 | 1.7 | 1.7 | 0.00 | 0.14 | 0.14 | 92 | 1011.2 |
| 20260509153144 | 56 | 86 | 1.7 | 2.6 | 0.00 | 0.14 | 0.14 | 92 | 1011.2 |
| 20260509152639 | 56 | 84 | 1.7 | 2.6 | 0.00 | 0.14 | 0.14 | 92 | 1011.5 |
| 20260509152137 | 56 | 85 | 3.5 | 4.3 | 0.00 | 0.14 | 0.14 | 92 | 1011.3 |
| 20260509151634 | 56 | 33 | 1.7 | 3.5 | 0.00 | 0.14 | 0.14 | 93 | 1011.4 |
| 20260509151131 | 56 | 74 | 2.6 | 3.5 | 0.00 | 0.14 | 0.14 | 93 | 1011.5 |
| 20260509150629 | 55 | 77 | 1.7 | 2.6 | 0.02 | 0.14 | 0.14 | 92 | 1011.7 |
| 20260509150127 | 56 | 77 | 0.9 | 2.6 | 0.02 | 0.14 | 0.14 | 92 | 1011.6 |
| 20260509145623 | 55 | 103 | 0.9 | 1.7 | 0.00 | 0.13 | 0.13 | 92 | 1011.7 |
| 20260509145118 | 55 | 85 | 1.7 | 1.7 | 0.00 | 0.13 | 0.13 | 93 | 1011.6 |
| 20260509144615 | 55 | 98 | 1.7 | 2.6 | 0.00 | 0.13 | 0.13 | 93 | 1011.5 |
| 20260509144112 | 55 | 68 | 1.7 | 1.7 | 0.00 | 0.13 | 0.13 | 94 | 1011.5 |
| 20260509143609 | 55 | 74 | 0.0 | 1.7 | 0.00 | 0.13 | 0.13 | 95 | 1011.6 |
| 20260509143107 | 55 | 79 | 1.7 | 1.7 | 0.00 | 0.13 | 0.13 | 95 | 1011.4 |
| 20260509142602 | 55 | 57 | 1.7 | 2.6 | 0.00 | 0.13 | 0.13 | 96 | 1011.5 |
| 20260509142058 | 54 | 60 | 2.6 | 2.6 | 0.00 | 0.13 | 0.13 | 96 | 1011.3 |
| 20260509141554 | 54 | 54 | 2.6 | 2.6 | 0.00 | 0.13 | 0.13 | 96 | 1011.1 |
| 20260509141051 | 54 | 71 | 1.7 | 2.6 | 0.00 | 0.13 | 0.13 | 96 | 1011.6 |
| 20260509140548 | 54 | 65 | 1.7 | 2.6 | 0.00 | 0.13 | 0.13 | 96 | 1011.5 |
| 20260509140046 | 54 | 82 | 1.7 | 2.6 | 0.00 | 0.13 | 0.13 | 96 | 1011.5 |
| 20260509135543 | 54 | 60 | 0.9 | 2.6 | 0.02 | 0.13 | 0.13 | 95 | 1011.7 |
| 20260509135041 | 54 | 47 | 2.6 | 2.6 | 0.00 | 0.13 | 0.13 | 95 | 1011.5 |
| 20260509134537 | 54 | 56 | 1.7 | 1.7 | 0.02 | 0.13 | 0.13 | 95 | 1011.5 |
| 20260509134035 | 54 | 254 | 0.0 | 0.9 | 0.02 | 0.13 | 0.13 | 95 | 1011.6 |
| 20260509133532 | 53 | 325 | 0.0 | 0.0 | 0.02 | 0.13 | 0.13 | 96 | 1011.7 |
| 20260509133029 | 53 | 90 | 1.7 | 2.6 | 0.00 | 0.12 | 0.12 | 96 | 1011.8 |
| 20260509132528 | 53 | 144 | 1.7 | 2.6 | 0.00 | 0.12 | 0.12 | 96 | 1011.7 |
| 20260509132026 | 53 | 113 | 2.6 | 2.6 | 0.02 | 0.12 | 0.12 | 97 | 1011.7 |
| 20260509131521 | 53 | 101 | 1.7 | 1.7 | 0.02 | 0.12 | 0.12 | 97 | 1011.9 |
| 20260509131018 | 53 | 90 | 0.0 | 1.7 | 0.00 | 0.12 | 0.12 | 97 | 1011.7 |
| 20260509130513 | 53 | 98 | 0.0 | 0.9 | 0.00 | 0.12 | 0.12 | 97 | 1011.9 |
| 20260509130011 | 52 | 66 | 1.7 | 2.6 | 0.02 | 0.12 | 0.12 | 97 | 1011.8 |
| 20260509125507 | 52 | 78 | 2.6 | 3.5 | 0.02 | 0.12 | 0.12 | 98 | 1011.7 |
| 20260509125003 | 52 | 65 | 1.7 | 2.6 | 0.00 | 0.11 | 0.11 | 98 | 1011.9 |
| 20260509124500 | 52 | 74 | 1.7 | 2.6 | 0.02 | 0.11 | 0.11 | 98 | 1011.6 |
| 20260509123958 | 52 | 69 | 0.9 | 0.9 | 0.05 | 0.11 | 0.11 | 98 | 1011.8 |
| 20260509123455 | 52 | 74 | 2.6 | 2.6 | 0.05 | 0.11 | 0.11 | 98 | 1012.3 |
| 20260509122951 | 52 | 42 | 2.6 | 2.6 | 0.05 | 0.11 | 0.11 | 98 | 1012.2 |
| 20260509122448 | 52 | 90 | 0.0 | 0.9 | 0.05 | 0.10 | 0.10 | 98 | 1011.9 |
| 20260509121945 | 52 | 270 | 0.0 | 0.9 | 0.05 | 0.10 | 0.10 | 98 | 1012.1 |
| 20260509121442 | 52 | 71 | 0.0 | 1.7 | 0.05 | 0.09 | 0.09 | 98 | 1012.4 |
| 20260509120940 | 52 | 127 | 1.7 | 1.7 | 0.02 | 0.09 | 0.09 | 98 | 1012.2 |
| 20260509120438 | 52 | 75 | 0.0 | 0.9 | 0.02 | 0.09 | 0.09 | 98 | 1012.2 |
| 20260509115935 | 52 | 66 | 1.7 | 2.6 | 0.02 | 0.09 | 0.09 | 98 | 1012.3 |
| 20260509115432 | 51 | 105 | 0.0 | 0.9 | 0.02 | 0.08 | 0.08 | 98 | 1012.2 |
| 20260509114929 | 51 | 75 | 0.0 | 0.0 | 0.05 | 0.08 | 0.08 | 98 | 1012.4 |
| 20260509114428 | 51 | 120 | 0.0 | 1.7 | 0.05 | 0.08 | 0.08 | 98 | 1012.6 |
| 20260509113927 | 51 | 90 | 0.0 | 0.0 | 0.02 | 0.07 | 0.07 | 98 | 1012.1 |
| 20260509113424 | 51 | 84 | 0.9 | 1.7 | 0.02 | 0.07 | 0.07 | 98 | 1012.3 |
| 20260509112921 | 51 | 54 | 0.9 | 0.9 | 0.05 | 0.07 | 0.07 | 98 | 1012.2 |
| 20260509112418 | 51 | 295 | 1.7 | 1.7 | 0.02 | 0.07 | 0.07 | 98 | 1012.1 |
| 20260509111915 | 51 | 99 | 0.0 | 0.0 | 0.00 | 0.06 | 0.06 | 98 | 1012.1 |
| 20260509111412 | 51 | 45 | 1.7 | 2.6 | 0.00 | 0.06 | 0.06 | 98 | 1011.6 |
| 20260509110910 | 51 | 82 | 0.9 | 1.7 | 0.00 | 0.06 | 0.06 | 98 | 1011.6 |
| 20260509110405 | 51 | 283 | 1.7 | 2.6 | 0.00 | 0.06 | 0.06 | 98 | 1011.5 |
| 20260509105904 | 51 | 90 | 1.7 | 2.6 | 0.00 | 0.06 | 0.06 | 98 | 1011.7 |
| 20260509105402 | 51 | 60 | 0.0 | 0.0 | 0.00 | 0.06 | 0.06 | 98 | 1011.6 |
| 20260509104858 | 51 | 79 | 1.7 | 2.6 | 0.00 | 0.06 | 0.06 | 97 | 1011.6 |
| 20260509104355 | 51 | 74 | 0.0 | 0.0 | 0.00 | 0.06 | 0.06 | 97 | 1011.6 |
| 20260509103853 | 51 | 261 | 0.0 | 0.0 | 0.02 | 0.06 | 0.06 | 97 | 1011.6 |
| 20260509103350 | 51 | 74 | 0.0 | 1.7 | 0.02 | 0.06 | 0.06 | 97 | 1011.6 |
| 20260509102848 | 51 | 71 | 0.0 | 0.0 | 0.00 | 0.06 | 0.06 | 97 | 1011.6 |
| 20260509102345 | 51 | 73 | 1.7 | 1.7 | 0.00 | 0.06 | 0.06 | 97 | 1011.4 |
| 20260509101841 | 51 | 72 | 1.7 | 2.6 | 0.02 | 0.06 | 0.06 | 97 | 1011.6 |
| 20260509101337 | 51 | 66 | 0.9 | 1.7 | 0.02 | 0.06 | 0.06 | 97 | 1011.7 |
| 20260509100835 | 51 | 77 | 1.7 | 2.6 | 0.00 | 0.06 | 0.06 | 97 | 1011.4 |
| 20260509100332 | 51 | 66 | 0.9 | 1.7 | 0.02 | 0.06 | 0.06 | 97 | 1011.6 |
| 20260509095829 | 51 | 128 | 0.0 | 1.7 | 0.02 | 0.06 | 0.06 | 97 | 1011.7 |
| 20260509095326 | 51 | 66 | 0.0 | 0.9 | 0.00 | 0.05 | 0.05 | 97 | 1011.8 |
| 20260509094823 | 51 | 75 | 0.0 | 1.7 | 0.02 | 0.05 | 0.05 | 96 | 1011.8 |
| 20260509094320 | 51 | 126 | 0.9 | 1.7 | 0.05 | 0.05 | 0.05 | 96 | 1012.2 |
| 20260509093817 | 51 | 257 | 0.0 | 2.6 | 0.05 | 0.05 | 0.05 | 96 | 1012.1 |
| 20260509093314 | 51 | 277 | 0.0 | 0.9 | 0.02 | 0.04 | 0.04 | 96 | 1012.3 |
| 20260509092813 | 51 | 105 | 1.7 | 2.6 | 0.02 | 0.04 | 0.04 | 96 | 1012.3 |
| 20260509092311 | 51 | 90 | 0.0 | 1.7 | 0.02 | 0.04 | 0.04 | 95 | 1011.9 |
| 20260509091808 | 51 | 77 | 1.7 | 1.7 | 0.02 | 0.03 | 0.03 | 95 | 1012.3 |
| 20260509091305 | 51 | 77 | 0.0 | 0.9 | 0.02 | 0.03 | 0.03 | 95 | 1012.2 |
| 20260509090802 | 51 | 56 | 1.7 | 1.7 | 0.02 | 0.03 | 0.03 | 95 | 1012.2 |
| 20260509090259 | 51 | 107 | 0.0 | 1.7 | 0.02 | 0.03 | 0.03 | 94 | 1012.4 |
| 20260509085757 | 51 | 83 | 0.0 | 2.6 | 0.00 | 0.02 | 0.02 | 93 | 1012.3 |
| 20260509085254 | 52 | 95 | 1.7 | 1.7 | 0.02 | 0.02 | 0.02 | 92 | 1012.5 |
| 20260509084750 | 52 | 66 | 1.7 | 1.7 | 0.02 | 0.02 | 0.02 | 91 | 1012.5 |
| 20260509084247 | 52 | 90 | 0.0 | 0.0 | 0.02 | 0.02 | 0.02 | 91 | 1012.5 |
| 20260509083745 | 53 | 121 | 1.7 | 1.7 | 0.05 | 0.02 | 0.02 | 88 | 1012.4 |
| 20260509083241 | 54 | 90 | 0.0 | 0.9 | 0.07 | 0.02 | 0.02 | 85 | 1012.2 |
| 20260509082738 | 55 | 140 | 2.6 | 3.5 | 0.07 | 0.01 | 0.01 | 81 | 1012.1 |
| 20260509082235 | 55 | 15 | 0.0 | 1.7 | 0.02 | 0.00 | 0.00 | 77 | 1012.1 |
| 20260509081732 | 56 | 246 | 1.7 | 5.2 | 0.00 | 0.00 | 0.00 | 74 | 1012.3 |
| 20260509081230 | 56 | 250 | 0.0 | 6.1 | 0.00 | 0.00 | 0.00 | 73 | 1012.1 |
| 20260509080727 | 56 | 77 | 0.9 | 1.7 | 0.00 | 0.00 | 0.00 | 77 | 1012.1 |
| 20260509080224 | 55 | 301 | 0.0 | 3.5 | 0.00 | 0.00 | 0.00 | 75 | 1012.2 |
| 20260509075723 | 54 | 114 | 0.0 | 2.6 | 0.00 | 0.00 | 0.00 | 80 | 1011.8 |
| 20260509075220 | 54 | 174 | 0.9 | 2.6 | 0.00 | 0.00 | 0.00 | 83 | 1012.1 |
| 20260509074717 | 54 | 109 | 0.9 | 0.9 | 0.00 | 0.00 | 0.00 | 80 | 1011.4 |
| 20260509074215 | 54 | 111 | 0.9 | 0.9 | 0.00 | 0.00 | 0.00 | 80 | 1011.3 |
| 20260509073710 | 54 | 73 | 0.0 | 1.7 | 0.00 | 0.00 | 0.00 | 79 | 1010.8 |
| 20260509073207 | 52 | 114 | 0.9 | 0.9 | 0.00 | 0.00 | 0.00 | 85 | 1011.0 |
| 20260509072704 | 52 | 90 | 0.0 | 2.6 | 0.00 | 0.00 | 0.00 | 88 | 1010.9 |
| 20260509072201 | 52 | 71 | 0.9 | 1.7 | 0.00 | 0.00 | 0.00 | 88 | 1011.0 |
| 20260509071657 | 51 | 290 | 0.0 | 3.5 | 0.00 | 0.00 | 0.00 | 89 | 1010.7 |
| 20260509071155 | 51 | 90 | 0.0 | 1.7 | 0.00 | 0.00 | 0.00 | 90 | 1011.0 |
| 20260509070651 | 51 | 75 | 0.0 | 0.9 | 0.00 | 0.00 | 0.00 | 90 | 1010.8 |
| 20260509070147 | 51 | 74 | 0.0 | 0.9 | 0.00 | 0.00 | 0.00 | 90 | 1011.1 |
| 20260509065643 | 51 | 90 | 0.0 | 0.9 | 0.00 | 0.00 | 0.00 | 90 | 1010.9 |
| 20260509065140 | 51 | 90 | 0.0 | 0.9 | 0.00 | 0.00 | 0.00 | 90 | 1011.0 |
| 20260509064637 | 51 | 77 | 0.9 | 1.7 | 0.00 | 0.00 | 0.00 | 90 | 1010.6 |
| 20260509064135 | 51 | 99 | 0.0 | 0.0 | 0.00 | 0.00 | 0.00 | 90 | 1010.9 |
| 20260509063631 | 51 | 99 | 0.0 | 0.9 | 0.00 | 0.00 | 0.00 | 90 | 1010.8 |
| 20260509063128 | 51 | 98 | 0.0 | 0.0 | 0.00 | 0.00 | 0.00 | 90 | 1010.9 |
| 20260509062625 | 51 | 74 | 0.0 | 0.0 | 0.00 | 0.00 | 0.00 | 90 | 1010.7 |
| 20260509062122 | 51 | 74 | 0.0 | 0.0 | 0.00 | 0.00 | 0.00 | 90 | 1010.7 |
| 20260509061619 | 51 | 74 | 0.0 | 0.9 | 0.00 | 0.00 | 0.00 | 90 | 1011.0 |
| 20260509061116 | 51 | 82 | 0.0 | 0.9 | 0.00 | 0.00 | 0.00 | 90 | 1010.9 |
| 20260509060614 | 51 | 98 | 0.0 | 1.7 | 0.00 | 0.00 | 0.00 | 89 | 1010.9 |
| 20260509060109 | 51 | 82 | 0.0 | 1.7 | 0.00 | 0.00 | 0.00 | 89 | 1011.1 |
| 20260509055605 | 51 | 105 | 0.0 | 0.9 | 0.00 | 0.00 | 0.00 | 89 | 1011.0 |
| 20260509055101 | 51 | 60 | 0.0 | 1.7 | 0.00 | 0.00 | 0.00 | 89 | 1010.9 |
| 20260509054558 | 51 | 278 | 0.0 | 1.7 | 0.00 | 0.00 | 0.00 | 90 | 1011.3 |
| 20260509054056 | 52 | 297 | 0.0 | 1.7 | 0.00 | 0.00 | 0.00 | 88 | 1011.2 |
| 20260509053554 | 51 | 45 | 1.7 | 1.7 | 0.00 | 0.00 | 0.00 | 89 | 1011.2 |
| 20260509053051 | 51 | 77 | 0.0 | 0.9 | 0.00 | 0.00 | 0.00 | 89 | 1011.4 |
| 20260509052549 | 51 | 90 | 0.0 | 1.7 | 0.00 | 0.00 | 0.00 | 89 | 1011.3 |
| 20260509052047 | 51 | 81 | 0.0 | 0.9 | 0.00 | 0.00 | 0.00 | 89 | 1011.2 |
| 20260509051544 | 52 | 90 | 0.0 | 1.7 | 0.00 | 0.00 | 0.00 | 88 | 1011.1 |
| 20260509051041 | 52 | 120 | 0.0 | 1.7 | 0.00 | 0.00 | 0.00 | 88 | 1011.3 |
| 20260509050538 | 52 | 66 | 0.0 | 2.6 | 0.00 | 0.00 | 0.00 | 87 | 1011.4 |
| 20260509050034 | 52 | 60 | 0.9 | 0.9 | 0.00 | 0.00 | 0.00 | 87 | 1011.4 |
| 20260509045532 | 53 | 74 | 0.0 | 0.9 | 0.00 | 0.00 | 0.00 | 87 | 1011.4 |
| 20260509045029 | 53 | 83 | 0.0 | 1.7 | 0.00 | 0.00 | 0.00 | 86 | 1011.5 |
| 20260509044526 | 53 | 90 | 0.9 | 0.9 | 0.00 | 0.00 | 0.00 | 86 | 1011.5 |
| 20260509044024 | 53 | 74 | 0.0 | 0.9 | 0.00 | 0.00 | 0.00 | 86 | 1011.5 |
| 20260509043520 | 53 | 120 | 1.7 | 2.6 | 0.00 | 0.00 | 0.00 | 87 | 1011.6 |
| 20260509043016 | 53 | 270 | 0.0 | 0.0 | 0.00 | 0.00 | 0.00 | 86 | 1011.6 |
| 20260509042512 | 53 | 66 | 0.0 | 0.0 | 0.00 | 0.00 | 0.00 | 86 | 1011.7 |
| 20260509042008 | 53 | 49 | 1.7 | 2.6 | 0.00 | 0.00 | 0.00 | 85 | 1011.7 |
| 20260509041505 | 53 | 109 | 0.9 | 1.7 | 0.00 | 0.00 | 0.00 | 84 | 1011.9 |
| 20260509041003 | 53 | 74 | 0.0 | 0.9 | 0.00 | 0.00 | 0.00 | 84 | 1012.1 |
| 20260509040501 | 53 | 106 | 0.0 | 0.0 | 0.00 | 0.00 | 0.00 | 84 | 1011.9 |
| 20260509035957 | 53 | 106 | 0.0 | 0.9 | 0.00 | 0.00 | 0.00 | 83 | 1012.1 |
| 20260509035454 | 53 | 81 | 0.0 | 0.0 | 0.00 | 0.00 | 0.00 | 84 | 1012.1 |
| 20260509034951 | 53 | 81 | 0.0 | 0.0 | 0.00 | 0.00 | 0.00 | 84 | 1012.1 |
| 20260509034449 | 53 | 74 | 0.0 | 0.0 | 0.00 | 0.00 | 0.00 | 84 | 1012.2 |